Regional Weather Roundup
Issued by NWS Boston, MA

Home | Current Version | Previous Version | Text Only | Print | Product List | Glossary On
Versions: 1 2 3 4 5 6 7 8 9 10 11 12 13 14 15 16 17 18 19 20 21 22 23 24 25 26 27 28
000
ASUS41 KBOX 220110
RWRBOX

REGIONAL WEATHER ROUNDUP
NATIONAL WEATHER SERVICE TAUNTON MA
800 PM EST WED FEB 21 2018

NOTE:  "FAIR" INDICATES FEW OR NO CLOUDS BELOW 12,000 FEET WITH NO
SIGNIFICANT WEATHER AND/OR OBSTRUCTIONS TO VISIBILITY.

MAZALL-220200-
EASTERN MASSACHUSETTS

CITY           SKY/WX    TMP DP  RH WIND       PRES   REMARKS
BOSTON         CLOUDY    68  56  65 W14       30.23R
BEVERLY        CLOUDY    67  50  54 NW16G29   30.23R
LAWRENCE       CLOUDY    67  49  52 W12G23    30.27R
BEDFORD        MOCLDY    67  52  58 NW15      30.24R
BLUE HILL        N/A     62  56  80 W13       30.23R
NORWOOD        FAIR      67  58  72 W9        30.23R
MARSHFIELD     FAIR      59  57  94 W9        30.24R
PLYMOUTH       FAIR      51  50  96 S5        30.25R FOG
TAUNTON        FAIR      54  53  97 SW5       30.25R
NEW BEDFORD    FAIR      51  51 100 W10       30.26R
$$

MAZALL-220200-
CAPE COD AND THE ISLANDS

CITY           SKY/WX    TMP DP  RH WIND       PRES   REMARKS
FALMOUTH       FOG       46  46 100 SW10      30.27  VSB 1/2
HYANNIS        CLOUDY    48  48 100 SW13      30.23S FOG
CHATHAM        FOG       46  46 100 SW12G18   30.25R VSB 1/2
PROVINCETOWN   FOG       42  42 100 SW15      30.24R VSB 1
NANTUCKET      FOG       45  45 100 SW16      30.27R VSB 1/4
MARTHAS VNYRD  CLOUDY   N/A N/A N/A SW9       30.27R HAZE
$$

MAZALL-220200-
CENTRAL AND WESTERN MASSACHUSETTS

CITY           SKY/WX    TMP DP  RH WIND       PRES   REMARKS
WORCESTER      CLOUDY    63  52  67 W18       30.28R
FITCHBURG      CLOUDY    66  54  65 NW14G26   30.27R
ORANGE         CLOUDY    59  50  72 NW8       30.31R
SPRINGFIELD    CLOUDY    60  48  63 NW12      30.30R
WESTFIELD      CLOUDY    59  47  64 NW8       30.32R
NORTH ADAMS    CLOUDY    52  43  71 W6        30.37R
PITTSFIELD     CLOUDY    49  41  74 W8        30.36R
$$

RIZALL-220200-
RHODE ISLAND

CITY           SKY/WX    TMP DP  RH WIND       PRES   REMARKS
PROVIDENCE     FAIR      60  57  89 W6        30.26R
NEWPORT        MOCLDY    49  49 100 VRB3      30.27R FOG
BLOCK ISLAND   CLOUDY    47  47 100 SW16      30.28R FOG
SMITHFIELD     FAIR      63  56  78 MISG      30.27R
WESTERLY       FAIR      53  53 100 CALM      30.29R
$$

CTZALL-220200-
CONNECTICUT

CITY           SKY/WX    TMP DP  RH WIND       PRES   REMARKS
BRADLEY INTL   MOCLDY    59  47  64 NW8G18    30.31R
HARTFORD       CLOUDY    62  47  57 NW10G18   30.32R
BRIDGEPORT     CLOUDY    65  56  72 NW8G17    30.28R
DANBURY        CLOUDY    61  49  64 N13       30.33R
GROTON         MOCLDY    54  52  93 NW6       30.29R
NEW HAVEN      MOCLDY    64  54  69 N12       30.28R
CHESTER        FAIR      63  54  72 NW10G18   30.30R
MERIDEN        MOCLDY    61  48  62 N9        30.31R
WILLIMANTIC    MOCLDY    65  50  58 NW14G24   30.29R
OXFORD         FAIR      58  48  69 N15G23    30.32R
$$

MEZ002-015-021-024-NHZ003-005-008-011-012-014-VTZ005-008-220200-
NORTHERN NEW ENGLAND

CITY           SKY/WX    TMP DP  RH WIND       PRES   REMARKS
PORTLAND ME    CLOUDY    55  43  63 NW12      30.24R
BANGOR ME      CLOUDY    52  39  61 NW8       30.18R
CONCORD NH     CLOUDY    53  43  68 NW17G23   30.29R
MANCHESTER NH  CLOUDY    58  48  69 N16G24    30.27R
NASHUA NH      NOT AVBL
PORTSMOUTH NH  CLOUDY    56  46  68 NW17      30.25R
JAFFREY NH     CLOUDY    57  48  72 VRB6      30.29R
KEENE NH       CLOUDY    56  46  69 NW8       30.32R
BURLINGTON VT  MOCLDY    41  28  60 N12       30.44R
MT. WASHINGTON FOG       23  23 100 W70G86      N/A  VSB 1/16WCI  -1
$$

NYZ052-076-220200-
EASTERN NEW YORK

CITY           SKY/WX    TMP DP  RH WIND       PRES   REMARKS
ALBANY         CLOUDY    43  34  70 W18G30    30.44R
NEW YORK CITY  LGT RAIN  66  53  63 NW15      30.29R
$$

ANZALL-220200-
MARINE OBSERVATIONS

STATION/POSITION TIME  TEMP    WIND        PRES    VSBY  WAVE
                       AIR SEA DIR/SP/G                  HT/PER
                 (UTC) (F)     (DEG/KT/KT) (MB)    (MI)  (FT/S)
BOSTON BUOY      0050   51 41  240/ 12/ 14 1022.0R         2/11
BUZZARDS BAY     0000   42     230/ 19/ 20 1024.2R
NANTUCKET SOUND  2350   42 39  230/ 16/ 19 1023.6          2/ 3
MASS BAY-STELLWA 0004   49 40              1020.4R         3/ 5
ISLE OF SHOALS   0000   65     310/ 22/ 24 1021.3R
S OF BLOCK IS    0043      39                N/A           6/ 6
$$

......................KEY.........................
  SKY/WX - SKY CONDITION/PRESENT WEATHER
  TMP    - TEMPERATURE IN FAHRENHEIT
  DWPT   - DEWPOINT IN FAHRENHEIT
  RH     - RELATIVE HUMIDITY IN PERCENT
  WIND   - DIRECTION AND SPEED IN MPH
  PRES   - MEAN SEA LEVEL PRESSURE IN INCHES OF HG
  WCI    - WIND CHILL INDEX
  VSB    - VISIBILITY IN MILES
  HX     - HEAT INDEX
  TC     - TEMPERATURE IN CELSIUS
  VRB    - VARIABLE WIND DIRECTION
  N/A    - NOT AVAILABLE




USA.gov is the U.S. government's official web portal to all federal, state and local government web resources and services.